Time,TemperatureF,DewpointF,PressureIn,WindDirection,WindDirectionDegrees,WindSpeedMPH,WindSpeedGustMPH,Humidity,HourlyPrecipIn,Conditions,Clouds,dailyrainin,SoftwareType,DateUTC
2013-04-29 00:03:00,50.2,45.8,29.65,SE,135,2.5,2.5,85,0.00,,,0.00,WUHU21623XXSP,2013-04-29 05:03:00,
2013-04-29 00:07:00,50.2,45.8,29.65,SSE,157,2.7,2.7,85,0.00,,,0.00,WUHU21623XXSP,2013-04-29 05:07:00,
2013-04-29 00:11:00,50.2,45.8,29.65,SE,135,3.6,3.6,85,0.00,,,0.00,WUHU21623XXSP,2013-04-29 05:11:00,
2013-04-29 00:31:00,50.2,45.9,29.65,SE,135,0.0,0.0,85,0.00,,,0.00,WUHU21623XXSP,2013-04-29 05:31:00,
2013-04-29 01:31:00,49.6,45.9,29.64,SE,135,4.3,4.3,87,0.00,,,0.00,WUHU21623XXSP,2013-04-29 06:31:00,
2013-04-29 02:31:00,48.9,45.5,29.63,SSE,158,0.0,0.0,88,0.00,,,0.00,WUHU21623XXSP,2013-04-29 07:31:00,
2013-04-29 03:31:00,48.2,45.1,29.62,SE,135,0.0,0.0,89,0.00,,,0.00,WUHU21623XXSP,2013-04-29 08:31:00,
2013-04-29 04:31:00,48.0,44.9,29.63,SSE,158,0.0,0.0,89,0.00,,,0.00,WUHU21623XXSP,2013-04-29 09:31:00,
2013-04-29 05:31:00,49.8,46.9,29.65,WNW,293,0.0,0.0,90,0.00,,,0.00,WUHU21623XXSP,2013-04-29 10:31:00,
2013-04-29 06:31:00,52.3,49.1,29.66,SW,225,0.0,0.0,89,0.00,,,0.00,WUHU21623XXSP,2013-04-29 11:31:00,
2013-04-29 06:54:00,53.8,50.3,29.67,WNW,292,3.1,3.1,88,0.00,,,0.00,WUHU21623XXSP,2013-04-29 11:54:00,
2013-04-29 06:59:00,54.1,50.3,29.67,SW,225,0.0,3.1,87,0.00,,,0.00,WUHU21623XXSP,2013-04-29 11:59:00,
2013-04-29 07:04:00,54.3,50.5,29.66,West,270,0.0,0.0,87,0.00,,,0.00,WUHU21623XXSP,2013-04-29 12:04:00,
2013-04-29 07:09:00,54.5,50.4,29.67,West,270,0.0,2.0,86,0.00,,,0.00,WUHU21623XXSP,2013-04-29 12:09:00,
2013-04-29 07:14:00,54.9,50.7,29.67,SSE,157,0.0,2.0,86,0.00,,,0.00,WUHU21623XXSP,2013-04-29 12:14:00,
2013-04-29 07:19:00,55.2,51.0,29.67,WNW,292,0.0,0.0,86,0.00,,,0.00,WUHU21623XXSP,2013-04-29 12:19:00,
2013-04-29 07:24:00,55.8,51.3,29.67,SSW,202,0.0,0.0,85,0.00,,,0.00,WUHU21623XXSP,2013-04-29 12:24:00,
2013-04-29 07:29:00,56.1,51.6,29.67,SE,135,0.0,1.6,85,0.00,,,0.00,WUHU21623XXSP,2013-04-29 12:29:00,
2013-04-29 07:34:00,56.5,51.7,29.67,SW,225,0.0,1.6,84,0.00,,,0.00,WUHU21623XXSP,2013-04-29 12:34:00,
2013-04-29 07:39:00,56.5,51.7,29.67,West,270,2.5,2.5,84,0.00,,,0.00,WUHU21623XXSP,2013-04-29 12:39:00,
2013-04-29 07:44:00,57.0,51.9,29.67,WNW,292,2.0,2.5,83,0.00,,,0.00,WUHU21623XXSP,2013-04-29 12:44:00,
2013-04-29 07:49:00,57.9,52.8,29.67,SE,135,0.9,2.0,83,0.00,,,0.00,WUHU21623XXSP,2013-04-29 12:49:00,
2013-04-29 07:54:00,58.8,53.3,29.66,SSE,157,0.0,0.9,82,0.00,,,0.00,WUHU21623XXSP,2013-04-29 12:54:00,
2013-04-29 07:59:00,59.5,53.4,29.67,ESE,112,0.0,2.0,80,0.00,,,0.00,WUHU21623XXSP,2013-04-29 12:59:00,
2013-04-29 08:03:00,59.5,53.4,29.67,WSW,247,0.0,2.0,80,0.00,,,0.00,WUHU21623XXSP,2013-04-29 13:03:00,
2013-04-29 08:31:00,59.7,53.2,29.66,SE,135,1.6,1.6,79,0.00,,,0.00,WUHU21623XXSP,2013-04-29 13:31:00,
2013-04-29 09:31:00,64.2,55.9,29.66,ESE,113,0.0,0.0,74,0.00,,,0.00,WUHU21623XXSP,2013-04-29 14:31:00,
2013-04-29 10:31:00,70.0,57.5,29.65,SE,135,4.5,4.5,64,0.00,,,0.00,WUHU21623XXSP,2013-04-29 15:31:00,
2013-04-29 11:31:00,72.1,57.6,29.64,SSE,158,8.9,8.9,60,0.00,,,0.00,WUHU21623XXSP,2013-04-29 16:31:00,
2013-04-29 12:31:00,71.2,53.8,29.65,NW,315,2.7,2.7,54,0.00,,,0.00,WUHU21623XXSP,2013-04-29 17:31:00,
2013-04-29 13:31:00,72.9,53.8,29.63,SSE,158,0.0,0.0,51,0.00,,,0.00,WUHU21623XXSP,2013-04-29 18:31:00,
2013-04-29 14:40:00,71.4,52.4,29.60,ESE,113,10.1,10.1,51,0.00,,,0.00,WUHU21623XXSP,2013-04-29 19:40:00,
2013-04-29 14:45:00,70.3,52.4,29.61,ESE,112,5.8,6.7,53,0.00,,,0.00,WUHU21623XXSP,2013-04-29 19:45:00,
2013-04-29 14:50:00,69.8,52.5,29.61,SE,135,4.9,6.7,54,0.00,,,0.00,WUHU21623XXSP,2013-04-29 19:50:00,
2013-04-29 14:55:00,69.6,52.2,29.61,SE,135,5.6,10.1,54,0.00,,,0.00,WUHU21623XXSP,2013-04-29 19:55:00,
2013-04-29 15:00:00,69.3,52.4,29.61,SE,135,7.8,13.9,55,0.00,,,0.00,WUHU21623XXSP,2013-04-29 20:00:00,
2013-04-29 15:05:00,68.7,52.3,29.61,SE,135,8.5,13.9,56,0.00,,,0.00,WUHU21623XXSP,2013-04-29 20:05:00,
2013-04-29 15:10:00,68.7,52.8,29.61,SE,135,8.1,10.5,57,0.00,,,0.00,WUHU21623XXSP,2013-04-29 20:10:00,
2013-04-29 15:15:00,68.5,53.3,29.60,SE,135,7.6,8.1,58,0.00,,,0.00,WUHU21623XXSP,2013-04-29 20:15:00,
2013-04-29 15:20:00,68.7,53.3,29.60,ESE,112,6.9,8.9,58,0.00,,,0.00,WUHU21623XXSP,2013-04-29 20:20:00,
2013-04-29 15:25:00,68.7,53.8,29.60,SE,135,4.5,8.9,59,0.00,,,0.00,WUHU21623XXSP,2013-04-29 20:25:00,
2013-04-29 15:30:00,68.5,53.6,29.59,SE,135,2.9,4.5,59,0.00,,,0.00,WUHU21623XXSP,2013-04-29 20:30:00,
2013-04-29 15:35:00,68.7,54.3,29.59,SE,135,1.6,4.7,60,0.00,,,0.00,WUHU21623XXSP,2013-04-29 20:35:00,
2013-04-29 15:40:00,68.9,54.0,29.59,SE,135,7.6,7.6,59,0.00,,,0.00,WUHU21623XXSP,2013-04-29 20:40:00,
2013-04-29 15:45:00,68.7,54.3,29.59,SE,135,2.2,7.6,60,0.00,,,0.00,WUHU21623XXSP,2013-04-29 20:45:00,
2013-04-29 15:50:00,68.4,54.0,29.60,SE,135,6.5,6.5,60,0.00,,,0.00,WUHU21623XXSP,2013-04-29 20:50:00,
2013-04-29 15:55:00,67.8,53.9,29.60,SE,135,3.6,6.5,61,0.00,,,0.00,WUHU21623XXSP,2013-04-29 20:55:00,
2013-04-29 16:00:00,67.3,53.8,29.60,SE,135,0.0,5.1,62,0.00,,,0.00,WUHU21623XXSP,2013-04-29 21:00:00,
2013-04-29 16:05:00,66.9,53.5,29.61,SE,135,0.0,6.5,62,0.00,,,0.00,WUHU21623XXSP,2013-04-29 21:05:00,
2013-04-29 16:10:00,66.6,53.5,29.61,SE,135,0.0,6.5,63,0.00,,,0.00,WUHU21623XXSP,2013-04-29 21:10:00,
2013-04-29 16:15:00,66.2,53.6,29.60,ESE,112,3.8,5.4,64,0.00,,,0.00,WUHU21623XXSP,2013-04-29 21:15:00,
2013-04-29 16:20:00,66.0,53.5,29.60,SE,135,3.4,4.5,64,0.00,,,0.00,WUHU21623XXSP,2013-04-29 21:20:00,
2013-04-29 16:25:00,66.0,53.9,29.59,SE,135,6.3,6.3,65,0.00,,,0.00,WUHU21623XXSP,2013-04-29 21:25:00,
2013-04-29 16:30:00,66.9,54.6,29.59,SE,135,5.4,6.3,65,0.00,,,0.00,WUHU21623XXSP,2013-04-29 21:30:00,
2013-04-29 16:35:00,67.6,55.4,29.59,SE,135,6.7,6.7,65,0.00,,,0.00,WUHU21623XXSP,2013-04-29 21:35:00,
2013-04-29 16:41:00,68.2,55.5,29.59,SE,135,8.5,8.5,64,0.00,,,0.00,WUHU21623XXSP,2013-04-29 21:41:00,
2013-04-29 16:46:00,68.5,55.0,29.59,SE,135,7.6,10.1,62,0.00,,,0.00,WUHU21623XXSP,2013-04-29 21:46:00,
2013-04-29 16:51:00,68.5,54.6,29.59,SE,135,6.9,10.1,61,0.00,,,0.00,WUHU21623XXSP,2013-04-29 21:51:00,
2013-04-29 16:56:00,68.4,54.4,29.59,SE,135,6.3,9.8,61,0.00,,,0.00,WUHU21623XXSP,2013-04-29 21:56:00,
2013-04-29 17:01:00,68.2,53.8,29.58,SE,135,9.6,9.8,60,0.00,,,0.00,WUHU21623XXSP,2013-04-29 22:01:00,
2013-04-29 17:06:00,67.8,53.4,29.59,SE,135,11.9,11.9,60,0.00,,,0.00,WUHU21623XXSP,2013-04-29 22:06:00,
2013-04-29 17:11:00,67.3,53.4,29.59,SSE,157,3.1,11.9,61,0.00,,,0.00,WUHU21623XXSP,2013-04-29 22:11:00,
2013-04-29 17:16:00,66.9,53.2,29.59,SE,135,8.5,8.5,61,0.00,,,0.00,WUHU21623XXSP,2013-04-29 22:16:00,
2013-04-29 17:21:00,66.7,53.3,29.59,SE,135,10.7,10.7,62,0.00,,,0.00,WUHU21623XXSP,2013-04-29 22:21:00,
2013-04-29 17:26:00,66.6,53.3,29.59,SE,135,6.3,10.7,63,0.00,,,0.00,WUHU21623XXSP,2013-04-29 22:26:00,
2013-04-29 17:31:00,66.2,54.0,29.58,SE,135,7.6,9.6,65,0.00,,,0.00,WUHU21623XXSP,2013-04-29 22:31:00,
2013-04-29 17:36:00,66.0,53.9,29.58,SE,135,4.7,9.6,65,0.00,,,0.00,WUHU21623XXSP,2013-04-29 22:36:00,
2013-04-29 17:41:00,66.0,53.9,29.57,SE,135,8.3,8.9,65,0.00,,,0.00,WUHU21623XXSP,2013-04-29 22:41:00,
2013-04-29 17:46:00,66.2,54.0,29.58,SE,135,9.2,9.2,65,0.00,,,0.00,WUHU21623XXSP,2013-04-29 22:46:00,
2013-04-29 17:51:00,66.2,54.5,29.57,SE,135,11.0,11.0,66,0.00,,,0.00,WUHU21623XXSP,2013-04-29 22:51:00,
2013-04-29 17:56:00,66.4,54.6,29.57,SE,135,5.4,11.0,66,0.00,,,0.00,WUHU21623XXSP,2013-04-29 22:56:00,
2013-04-29 18:31:00,67.1,54.7,29.56,ESE,113,5.8,5.8,64,0.00,,,0.00,WUHU21623XXSP,2013-04-29 23:31:00,
2013-04-29 18:58:00,67.1,54.0,29.57,ESE,112,6.0,6.0,63,0.00,,,0.00,WUHU21623XXSP,2013-04-29 23:58:00,
2013-04-29 19:03:00,66.9,53.5,29.58,SE,135,6.7,6.7,62,0.00,,,0.00,WUHU21623XXSP,2013-04-30 00:03:00,
2013-04-29 19:08:00,66.7,53.3,29.58,SE,135,3.1,6.7,62,0.00,,,0.00,WUHU21623XXSP,2013-04-30 00:08:00,
2013-04-29 19:13:00,66.6,53.5,29.58,SE,135,7.6,7.6,63,0.00,,,0.00,WUHU21623XXSP,2013-04-30 00:13:00,
2013-04-29 19:18:00,66.0,53.0,29.59,SE,135,6.9,7.6,63,0.00,,,0.00,WUHU21623XXSP,2013-04-30 00:18:00,
2013-04-29 19:23:00,65.8,53.0,29.59,SE,135,6.9,6.9,63,0.00,,,0.00,WUHU21623XXSP,2013-04-30 00:23:00,
2013-04-29 19:28:00,65.5,52.5,29.58,ESE,112,3.1,6.9,63,0.00,,,0.00,WUHU21623XXSP,2013-04-30 00:28:00,
2013-04-29 19:33:00,65.1,52.2,29.59,SE,135,0.0,4.7,63,0.00,,,0.00,WUHU21623XXSP,2013-04-30 00:33:00,
2013-04-29 19:38:00,64.6,52.1,29.59,SE,135,4.3,6.9,64,0.00,,,0.00,WUHU21623XXSP,2013-04-30 00:38:00,
2013-04-29 19:43:00,64.2,51.7,29.58,SE,135,4.7,6.9,64,0.00,,,0.00,WUHU21623XXSP,2013-04-30 00:43:00,
2013-04-29 19:48:00,64.0,51.6,29.58,SE,135,4.9,5.4,64,0.00,,,0.00,WUHU21623XXSP,2013-04-30 00:48:00,
2013-04-29 19:53:00,63.7,52.0,29.59,SE,135,4.9,5.4,65,0.00,,,0.00,WUHU21623XXSP,2013-04-30 00:53:00,
2013-04-29 19:58:00,63.5,51.2,29.59,SE,135,5.6,5.6,64,0.00,,,0.00,WUHU21623XXSP,2013-04-30 00:58:00,
2013-04-29 20:03:00,63.3,50.9,29.59,SE,135,5.8,5.8,64,0.00,,,0.00,WUHU21623XXSP,2013-04-30 01:03:00,
2013-04-29 20:08:00,63.3,50.9,29.59,SE,135,4.5,5.8,65,0.00,,,0.00,WUHU21623XXSP,2013-04-30 01:08:00,
2013-04-29 20:13:00,63.0,51.0,29.58,SE,135,5.1,6.3,65,0.00,,,0.00,WUHU21623XXSP,2013-04-30 01:13:00,
2013-04-29 20:18:00,63.0,51.0,29.58,SE,135,6.9,6.9,65,0.00,,,0.00,WUHU21623XXSP,2013-04-30 01:18:00,
2013-04-29 20:23:00,63.0,51.0,29.59,SE,135,4.7,6.9,65,0.00,,,0.00,WUHU21623XXSP,2013-04-30 01:23:00,
2013-04-29 20:28:00,63.1,51.1,29.59,SE,135,4.5,9.6,65,0.00,,,0.00,WUHU21623XXSP,2013-04-30 01:28:00,
2013-04-29 20:33:00,63.1,51.1,29.59,SE,135,8.5,9.6,65,0.00,,,0.00,WUHU21623XXSP,2013-04-30 01:33:00,
2013-04-29 20:38:00,63.1,51.1,29.59,SE,135,3.1,8.5,65,0.00,,,0.00,WUHU21623XXSP,2013-04-30 01:38:00,
2013-04-29 20:43:00,63.1,51.1,29.59,SE,135,6.7,8.5,65,0.00,,,0.00,WUHU21623XXSP,2013-04-30 01:43:00,
2013-04-29 20:48:00,63.0,51.0,29.59,SE,135,4.5,6.7,65,0.00,,,0.00,WUHU21623XXSP,2013-04-30 01:48:00,
2013-04-29 20:53:00,62.8,50.8,29.59,SE,135,2.9,5.6,65,0.00,,,0.00,WUHU21623XXSP,2013-04-30 01:53:00,
2013-04-29 20:58:00,62.4,50.9,29.59,SE,135,4.5,6.7,66,0.00,,,0.00,WUHU21623XXSP,2013-04-30 01:58:00,
2013-04-29 21:03:00,62.4,50.9,29.59,SE,135,6.3,6.7,66,0.00,,,0.00,WUHU21623XXSP,2013-04-30 02:03:00,
2013-04-29 21:08:00,62.2,50.7,29.59,SE,135,3.8,6.3,66,0.00,,,0.00,WUHU21623XXSP,2013-04-30 02:08:00,
2013-04-29 21:13:00,61.9,50.8,29.58,SE,135,6.7,7.2,67,0.00,,,0.00,WUHU21623XXSP,2013-04-30 02:13:00,
2013-04-29 21:18:00,61.9,50.8,29.58,SE,135,3.4,7.2,67,0.00,,,0.00,WUHU21623XXSP,2013-04-30 02:18:00,
2013-04-29 21:23:00,61.9,50.8,29.58,SE,135,7.4,7.4,67,0.00,,,0.00,WUHU21623XXSP,2013-04-30 02:23:00,
2013-04-29 21:28:00,61.7,50.6,29.58,SE,135,5.1,7.4,67,0.00,,,0.00,WUHU21623XXSP,2013-04-30 02:28:00,
2013-04-29 21:33:00,61.5,50.6,29.59,SE,135,4.7,7.4,68,0.00,,,0.00,WUHU21623XXSP,2013-04-30 02:33:00,
2013-04-29 21:39:00,61.5,50.9,29.58,SE,135,2.9,4.7,68,0.00,,,0.00,WUHU21623XXSP,2013-04-30 02:39:00,
2013-04-29 21:44:00,61.3,50.7,29.59,SE,135,4.3,4.7,68,0.00,,,0.00,WUHU21623XXSP,2013-04-30 02:44:00,
2013-04-29 21:49:00,61.2,51.0,29.59,SE,135,5.1,5.1,69,0.00,,,0.00,WUHU21623XXSP,2013-04-30 02:49:00,
2013-04-29 21:52:00,61.0,50.8,29.59,SE,135,5.8,5.8,69,0.00,,,0.00,WUHU21623XXSP,2013-04-30 02:52:00,
2013-04-29 22:31:00,60.4,51.1,29.59,SE,135,2.9,2.9,71,0.00,,,0.00,WUHU21623XXSP,2013-04-30 03:31:00,
2013-04-29 23:30:00,59.2,51.3,29.57,SE,135,3.4,3.4,75,0.00,,,0.00,WUHU21623XXSP,2013-04-30 04:30:00,
2013-04-29 23:31:00,59.2,51.3,29.57,SSE,157,6.9,6.9,75,0.00,,,0.00,WUHU21623XXSP,2013-04-30 04:31:00,
2013-04-29 23:36:00,59.0,51.1,29.57,SE,135,4.3,6.9,75,0.00,,,0.00,WUHU21623XXSP,2013-04-30 04:36:00,
2013-04-29 23:41:00,58.8,50.9,29.57,SE,135,4.3,6.9,75,0.00,,,0.00,WUHU21623XXSP,2013-04-30 04:41:00,
2013-04-29 23:46:00,58.8,50.9,29.56,SE,135,3.6,4.3,75,0.00,,,0.00,WUHU21623XXSP,2013-04-30 04:46:00,
2013-04-29 23:51:00,58.8,50.9,29.56,SE,135,4.9,4.9,76,0.00,,,0.00,WUHU21623XXSP,2013-04-30 04:51:00,
2013-04-29 23:56:00,58.8,51.3,29.57,SE,135,3.1,4.9,76,0.00,,,0.00,WUHU21623XXSP,2013-04-30 04:56:00,